Location: Olsztyn
(53.7767°N, 20.4765°E)
Time: 22:00:45
(UTC+01:00)

Envisat - Pass Details

Date: 29 November 2022
Orbit: 763 x 765 km, 98.2° (Epoch: 07 February)

Event Time Altitude Azimuth Distance (km) Brightness Sun altitude
Rises 06:05:45 0° 7° (N) 3,249 6.1 -11.6°
Reaches altitude 10° 06:08:55 10° 346° (NNW) 2,318 5.2 -11.2°
Maximum altitude 06:11:53 16° 310° (NW) 1,936 4.5 -10.8°
Enters shadow 06:13:32 14° 288° (WNW) 2,058 4.5 -10.5°
